sat.trackr.live / text

‹ back to catalog

STARLINK-32317

NORAD 60918 · 2024-154R

PAYLOAD ACTIVE UNKNOWN

§ Identity

Operator
Country
US
Launch date
2024-08-31
Launch site
AFETR
Launch vehicle
Mass (kg)
RCS (m²)

Purposes: comms

External: N2YO · Heavens-Above · Gunter

§ Orbital elements

Epoch: 2026-09-21T18:49:30.662688Z

Period
93.85 min
Inclination
53.1608°
Eccentricity
0.0001340
Mean motion
15.34386250 rev/d
Perigee alt
461.8 km
Apogee alt
463.7 km
Semi-major
6,840.9 km
B*
-5.5409e-6
RAAN
91.8941°
Arg perigee
87.3550°
Mean anomaly
272.7606°
Rev number
11,637

§ Raw data

STARLINK-323171 60918U 24154R   26264.78438267 -.00000563  00000+0 -55409-5 0  99982 60918  53.1608  91.8941 0001340  87.3550 272.7606 15.34386250116372

JSON: /api/v1/satellites/60918 · /tle

For live sub-satellite position, see the globe view (requires WebGL).

§ Visibility from observer

Set your observer location to see the next 7 days of passes ≥ 10°. The values pass through the URL so the page stays shareable.

No JS? Fill the form by hand. The geolocation button needs JavaScript.